[[{"header":{"parameterUnit":"m.s-1","parameterCategory":1,"la1":30.2991,"la2":30.254,"lo1":-89.0895,"lo2":-89.0444,"dy":0.0017,"dx":0.0017,"nx":28,"ny":28,"refTime":"2025-01-27T09:00:00:Z","depth":0,"parameterNumber":2,"parameterNumberName":"U-component_of_WINDS"},"data":[0,0,0,0,0,0,0,0,0,0,0,0,0,0,0,0,0,0,0,0,0,0,0,0,0,0,0,0,0,0,0,0,0,0,0,0,0,0,0,0,0,0,0,0,0,0,0,0,0,0,0,0,0,0,0,0,0,0,-1.6964,-1.6964,0,-1.6984,-1.6984,-1.6985,-1.6912,-1.691,-1.6908,-1.6906,-1.693,-1.6932,-1.6935,0,0,0,0,0,0,0,0,0,0,0,0,0,-1.6866,-1.6869,-1.6964,-1.6965,-1.6965,-1.6984,-1.6985,-1.6985,-1.6912,-1.691,-1.6907,-1.6905,-1.6929,-1.6932,-1.6935,0,0,0,0,0,0,0,0,0,0,0,0,0,-1.69,-1.6869,-1.6964,-1.6931,-1.6928,-1.6984,-1.6985,-1.6985,-1.6913,-1.691,-1.6906,-1.6903,-1.6928,-1.6932,-1.6936,-1.7026,0,0,-1.6948,-1.695,0,0,0,0,0,0,0,0,-1.6898,-1.6904,-1.6936,-1.6933,-1.693,-1.6942,-1.6959,-1.6999,-1.6914,-1.6919,-1.6906,-1.6902,-1.6937,-1.694,-1.6951,-1.7027,-1.7028,-1.6948,-1.6951,-1.6952,-1.6953,0,0,0,0,0,0,0,-1.6896,-1.6903,-1.6972,-1.6936,-1.6933,-1.6916,-1.6917,-1.6966,-1.6946,-1.6918,-1.6913,-1.6916,-1.6935,-1.6947,-1.6951,-1.7028,-1.6948,-1.6952,-1.6954,-1.6956,-1.718,-1.7184,0,0,0,0,0,0,-1.6898,-1.6901,-1.6972,-1.6973,-1.6906,-1.692,-1.6922,-1.6942,-1.6945,-1.6943,-1.6919,-1.6913,-1.6942,-1.6946,-1.6951,-1.7058,-1.6952,-1.6956,-1.6958,-1.7177,-1.7181,-1.7185,0,0,0,0,0,0,-1.6896,-1.6905,-1.6971,-1.6936,-1.6943,-1.6926,-1.6949,-1.6944,-1.6956,-1.6946,-1.6942,-1.6935,-1.6939,-1.6946,-1.7008,-1.7058,-1.6958,-1.6962,-1.7172,-1.7178,-1.7183,-1.7272,0,0,0,0,0,0,-1.6893,-1.6904,-1.6938,-1.6937,-1.6945,-1.7026,-1.6952,-1.6947,-1.6963,-1.6955,-1.696,-1.6958,-1.6937,-1.7002,-1.7012,-1.7062,-1.6965,-1.7168,-1.7175,-1.7181,-1.7265,-1.728,-1.7293,0,0,0,0,0,-1.689,-1.6963,-1.694,-1.6949,-1.6986,-1.7029,-1.7034,-1.7008,-1.6967,-1.7001,-1.6994,-1.6958,-1.705,-1.7009,-1.7019,-1.7071,-1.7165,-1.7173,-1.7181,-1.7258,-1.7277,-1.7292,0,0,0,0,0,0,-1.6972,-1.6962,-1.6937,-1.7011,-1.7021,-1.7017,-1.7059,-1.7028,-1.7052,-1.7043,-1.7011,-1.7013,-1.7081,-1.7082,-1.7036,-1.7159,-1.7101,-1.7111,-1.7156,-1.7174,-1.7187,-1.7187,-1.6968,0,0,0,0,0,-1.6998,-1.7033,-1.7023,-1.7089,-1.7096,-1.7077,-1.7094,-1.7073,-1.7083,-1.7088,-1.7085,-1.7098,-1.7129,-1.7151,-1.718,-1.7264,-1.7264,-1.7304,-1.7318,-1.733,-1.734,-1.7385,-1.7403,-1.7211,-1.7211,-1.7211,0,0,-1.7053,-1.7052,-1.7077,-1.7106,-1.7111,-1.7149,-1.7081,-1.7124,-1.7152,-1.7095,-1.7153,-1.7152,-1.7163,-1.7237,-1.7269,-1.724,-1.7393,-1.734,-1.7349,-1.7353,-1.7395,-1.7414,-1.743,-1.7217,-1.7216,-1.7215,0,0,-1.7174,-1.7176,-1.7232,-1.7239,-1.7248,-1.7234,-1.7248,-1.7248,-1.7245,-1.7302,-1.726,-1.7294,-1.7349,-1.7359,-1.7371,-1.7495,-1.7463,-1.7505,-1.758,-1.7624,-1.7639,-1.7653,-1.7698,-1.7715,-1.7515,-1.7515,-1.7515,0,-1.7242,-1.7296,-1.7265,-1.7311,-1.7326,-1.7274,-1.7331,-1.7339,-1.7358,-1.737,-1.7336,-1.7404,-1.7408,-1.7484,-1.7514,-1.7525,-1.7541,-1.7505,-1.7639,-1.7652,-1.7664,-1.7708,-1.7725,-1.752,-1.752,-1.7519,-1.7519,0,-1.7381,-1.7419,-1.7463,-1.7481,-1.75,-1.7552,-1.7529,-1.7553,-1.753,-1.7521,-1.7581,-1.7583,-1.7612,-1.7628,-1.7606,-1.7701,-1.7682,-1.7645,-1.7586,-1.7689,-1.7729,-1.7745,-1.7528,-1.7526,-1.7524,-1.7523,0,0,-1.7555,-1.7554,-1.7571,-1.7578,-1.7584,-1.7614,-1.7663,-1.769,-1.7711,-1.7725,-1.7767,-1.7814,-1.7779,-1.7794,-1.7772,-1.7811,-1.7911,-1.7769,-1.7769,-1.7797,-1.8017,-1.8046,-1.8066,-1.7888,-1.7891,-1.7894,-1.8016,0,-1.7674,-1.7757,-1.773,-1.7815,-1.7851,-1.7802,-1.7845,-1.7854,-1.7846,-1.7876,-1.7868,-1.7903,-1.7853,-1.7861,-1.7897,-1.7891,-1.7955,-1.7882,-1.7928,-1.793,-1.7929,-1.8086,-1.8118,-1.8233,-1.8031,-1.8034,-1.8036,0,-1.7825,-1.7844,-1.7933,-1.7932,-1.7946,-1.7986,-1.8008,-1.8037,-1.8046,-1.8038,-1.8053,-1.8024,-1.8073,-1.8013,-1.8081,-1.8032,-1.8049,-1.8049,-1.8053,-1.8057,-1.7991,-1.8097,-1.8269,-1.8287,-1.806,-1.8058,-1.8056,0,-1.7945,-1.7993,-1.8052,-1.806,-1.8061,-1.809,-1.8092,-1.8097,-1.8115,-1.8135,-1.8146,-1.8172,-1.8187,-1.8208,-1.8187,-1.8144,-1.8259,-1.8196,-1.8255,-1.8256,-1.8283,-1.8282,-1.8462,-1.8291,-1.8291,-1.8291,-1.829,0,-1.8083,-1.8139,-1.8106,-1.8143,-1.8205,-1.8173,-1.8236,-1.8232,-1.8238,-1.8274,-1.8232,-1.8267,-1.8236,-1.8268,-1.8252,-1.8312,-1.8318,-1.8314,-1.831,-1.8319,-1.832,-1.8331,-1.8323,-1.8295,-1.8294,-1.8293,-1.8292,0,-1.8229,-1.8208,-1.827,-1.8265,-1.8265,-1.8311,-1.8307,-1.8342,-1.833,-1.8376,-1.8385,-1.8368,-1.8404,-1.8385,-1.8422,-1.8411,-1.8489,-1.8472,-1.8486,-1.8482,-1.8542,-1.8538,-1.8738,-1.8763,-1.8574,-1.8576,-1.8578,0,-1.8319,-1.8361,-1.836,-1.838,-1.8385,-1.8418,-1.8436,-1.8406,-1.8427,-1.844,-1.8473,-1.8505,-1.8529,-1.8589,-1.8581,-1.8609,-1.8594,-1.8662,-1.8598,-1.8607,-1.8597,-1.8596,-1.86,-1.8676,-1.8678,-1.868,-1.8681,0,-1.8481,-1.8469,-1.8495,-1.8519,-1.8541,-1.8558,-1.8572,-1.8591,-1.8562,-1.8587,-1.8622,-1.8641,-1.8678,-1.8711,-1.8735,-1.8738,-1.8706,-1.8701,-1.8716,-1.8727,-1.8734,-1.8733,-1.8523,-1.8697,-1.8696,-1.8694,-1.8694,-1.8693,-1.8603,-1.8638,-1.8643,-1.8674,-1.8681,-1.8695,-1.8727,-1.8719,-1.8748,-1.8775,-1.8756,-1.8799,-1.8807,-1.8835,-1.8843,-1.8876,-1.8849,-1.8871,-1.8877,-1.8883,-1.8892,-1.8727,-1.888,-1.888,-1.8879,-1.8879,-1.8878,0,-1.8764,-1.8765,-1.8794,-1.8814,-1.8839,-1.8803,-1.8817,-1.8841,-1.8878,-1.8888,-1.8912,-1.8953,-1.8984,-1.8978,-1.9007,-1.9035,-1.9021,-1.9044,-1.9042,-1.9044,-1.8914,-1.8898,-1.9055,-1.9055,-1.9055,-1.9055,-1.9054,-1.9054,-1.8852,-1.891,-1.8898,-1.896,-1.896,-1.9,-1.9011,-1.9024,-1.9032,-1.9079,-1.9105,-1.9099,-1.9103,-1.9132,-1.9159,-1.9156,-1.917,-1.9199,-1.9191,-1.907,-1.9053,-1.9036,-1.9022,-1.9201,-1.9202,-1.9318,-1.9319,-1.932]},{"header":{"parameterUnit":"m.s-1","parameterCategory":1,"la1":30.2991,"la2":30.254,"lo1":-89.0895,"lo2":-89.0444,"dy":0.0017,"dx":0.0017,"nx":28,"ny":28,"refTime":"2025-01-27T09:00:00:Z","depth":0,"parameterNumber":3,"parameterNumberName":"V-component_of_WINDS"},"data":[0,0,0,0,0,0,0,0,0,0,0,0,0,0,0,0,0,0,0,0,0,0,0,0,0,0,0,0,0,0,0,0,0,0,0,0,0,0,0,0,0,0,0,0,0,0,0,0,0,0,0,0,0,0,0,0,0,0,-2.6546,-2.6546,0,-2.6574,-2.6574,-2.6574,-2.6547,-2.6546,-2.6545,-2.6544,-2.657,-2.6572,-2.6574,0,0,0,0,0,0,0,0,0,0,0,0,0,-2.6466,-2.6468,-2.6546,-2.6546,-2.6546,-2.6574,-2.6574,-2.6574,-2.6547,-2.6546,-2.6545,-2.6543,-2.657,-2.6572,-2.6574,0,0,0,0,0,0,0,0,0,0,0,0,0,-2.6498,-2.6468,-2.6546,-2.6536,-2.6536,-2.6574,-2.6574,-2.6575,-2.6547,-2.6546,-2.6544,-2.6543,-2.6569,-2.6572,-2.6574,-2.6622,0,0,-2.6582,-2.6583,0,0,0,0,0,0,0,0,-2.6496,-2.6501,-2.6537,-2.6537,-2.6536,-2.6555,-2.6556,-2.659,-2.6548,-2.6543,-2.6544,-2.6542,-2.6567,-2.6569,-2.6578,-2.6624,-2.6625,-2.6582,-2.6584,-2.6585,-2.6586,0,0,0,0,0,0,0,-2.6494,-2.65,-2.6557,-2.6538,-2.6537,-2.653,-2.6532,-2.6562,-2.6563,-2.6543,-2.6541,-2.6545,-2.6566,-2.6576,-2.6578,-2.6625,-2.6582,-2.6584,-2.6586,-2.6587,-2.6711,-2.6713,0,0,0,0,0,0,-2.6493,-2.6498,-2.6556,-2.6558,-2.6512,-2.6532,-2.6536,-2.6551,-2.6563,-2.6563,-2.6546,-2.6544,-2.6572,-2.6575,-2.6579,-2.6636,-2.6585,-2.6587,-2.6589,-2.6709,-2.6712,-2.6713,0,0,0,0,0,0,-2.6492,-2.6499,-2.6555,-2.6527,-2.6534,-2.6536,-2.6553,-2.6552,-2.6562,-2.6565,-2.6565,-2.6556,-2.6571,-2.6576,-2.6612,-2.6637,-2.6588,-2.6591,-2.6707,-2.671,-2.6712,-2.675,0,0,0,0,0,0,-2.649,-2.6498,-2.6517,-2.6528,-2.6535,-2.6588,-2.6554,-2.6554,-2.6567,-2.6563,-2.6575,-2.6575,-2.657,-2.6608,-2.6614,-2.6639,-2.6593,-2.6705,-2.6709,-2.6712,-2.6747,-2.6754,-2.676,0,0,0,0,0,-2.6487,-2.6526,-2.6518,-2.6525,-2.6559,-2.6589,-2.6593,-2.6588,-2.6569,-2.6587,-2.659,-2.6574,-2.6633,-2.6612,-2.6619,-2.6645,-2.6703,-2.6708,-2.6711,-2.6744,-2.6753,-2.676,0,0,0,0,0,0,-2.6518,-2.6528,-2.6519,-2.6563,-2.6576,-2.6585,-2.6608,-2.6597,-2.6614,-2.661,-2.6602,-2.6605,-2.6643,-2.6647,-2.6624,-2.6692,-2.6665,-2.6671,-2.6688,-2.6696,-2.6702,-2.67,-2.6595,0,0,0,0,0,-2.653,-2.6554,-2.6561,-2.6599,-2.6606,-2.6606,-2.6619,-2.6613,-2.6626,-2.6631,-2.6636,-2.6647,-2.6668,-2.6682,-2.6702,-2.6748,-2.6749,-2.6769,-2.6775,-2.6781,-2.6785,-2.681,-2.6818,-2.6726,-2.6726,-2.6726,0,0,-2.6555,-2.6563,-2.6579,-2.6606,-2.6615,-2.664,-2.6611,-2.6638,-2.6656,-2.6634,-2.6669,-2.6673,-2.6686,-2.6727,-2.6745,-2.6732,-2.6811,-2.6786,-2.679,-2.6792,-2.6814,-2.6823,-2.6831,-2.6729,-2.6729,-2.6728,0,0,-2.6613,-2.6622,-2.6655,-2.6665,-2.6679,-2.6678,-2.6686,-2.6697,-2.6699,-2.6734,-2.6719,-2.6739,-2.6776,-2.6785,-2.6795,-2.6857,-2.6843,-2.6863,-2.6898,-2.6921,-2.6928,-2.6935,-2.6956,-2.6964,-2.6868,-2.6868,-2.6868,0,-2.6642,-2.6679,-2.6673,-2.6701,-2.6714,-2.6696,-2.6729,-2.6738,-2.6758,-2.6767,-2.6751,-2.6797,-2.6804,-2.6847,-2.6862,-2.6871,-2.6879,-2.6862,-2.6928,-2.6934,-2.694,-2.6961,-2.6969,-2.6871,-2.687,-2.687,-2.687,0,-2.6714,-2.674,-2.6764,-2.6785,-2.68,-2.683,-2.6828,-2.6844,-2.6837,-2.6838,-2.6873,-2.6881,-2.6902,-2.6912,-2.6905,-2.6954,-2.6945,-2.6929,-2.6902,-2.6951,-2.697,-2.6978,-2.6874,-2.6873,-2.6872,-2.6872,0,0,-2.6792,-2.6808,-2.6818,-2.6827,-2.6841,-2.6861,-2.689,-2.6911,-2.6925,-2.6939,-2.6963,-2.6994,-2.6979,-2.699,-2.6985,-2.7005,-2.7053,-2.6987,-2.6987,-2.6998,-2.7107,-2.7119,-2.7128,-2.7045,-2.7046,-2.7047,-2.7106,0,-2.685,-2.6902,-2.6897,-2.6946,-2.697,-2.6954,-2.6979,-2.6991,-2.6992,-2.7012,-2.7013,-2.7036,-2.7015,-2.7021,-2.7041,-2.7043,-2.7075,-2.7039,-2.7066,-2.7067,-2.7063,-2.7138,-2.7151,-2.7205,-2.7113,-2.7115,-2.7115,0,-2.6925,-2.6942,-2.6994,-2.7005,-2.7015,-2.7038,-2.7057,-2.7076,-2.7088,-2.7088,-2.71,-2.7091,-2.712,-2.7092,-2.7132,-2.7107,-2.7118,-2.7121,-2.7123,-2.7125,-2.7094,-2.7142,-2.7223,-2.7231,-2.7127,-2.7126,-2.7125,0,-2.6976,-2.7013,-2.7048,-2.7056,-2.707,-2.7087,-2.7093,-2.7104,-2.7117,-2.7133,-2.7141,-2.716,-2.717,-2.7185,-2.7181,-2.7161,-2.7221,-2.7193,-2.7221,-2.7221,-2.7234,-2.7233,-2.7317,-2.7242,-2.7241,-2.7241,-2.7241,0,-2.7041,-2.7074,-2.7071,-2.7093,-2.7129,-2.7123,-2.7158,-2.7162,-2.7171,-2.7193,-2.718,-2.72,-2.7194,-2.7214,-2.7211,-2.7243,-2.7248,-2.7248,-2.7247,-2.7249,-2.7249,-2.7256,-2.7252,-2.7243,-2.7243,-2.7243,-2.7242,0,-2.7105,-2.7105,-2.7142,-2.7152,-2.7156,-2.7181,-2.7189,-2.721,-2.721,-2.7238,-2.7244,-2.7245,-2.7268,-2.7265,-2.7291,-2.7288,-2.7329,-2.7323,-2.7325,-2.7324,-2.7351,-2.7349,-2.7443,-2.7454,-2.7371,-2.7372,-2.7373,0,-2.7146,-2.7171,-2.7184,-2.7198,-2.7205,-2.7228,-2.7241,-2.7236,-2.725,-2.7266,-2.7284,-2.7306,-2.7323,-2.7361,-2.7363,-2.7382,-2.7376,-2.7408,-2.7379,-2.7381,-2.7376,-2.7375,-2.7377,-2.7414,-2.7415,-2.7415,-2.7416,0,-2.722,-2.7219,-2.7239,-2.7259,-2.7276,-2.7291,-2.7305,-2.7317,-2.7313,-2.733,-2.7353,-2.7367,-2.7393,-2.7414,-2.7433,-2.7438,-2.7426,-2.7425,-2.7432,-2.7435,-2.7435,-2.7435,-2.734,-2.7423,-2.7422,-2.7422,-2.7421,-2.7421,-2.7273,-2.7294,-2.7307,-2.7329,-2.734,-2.7353,-2.7372,-2.7376,-2.7396,-2.7417,-2.7413,-2.7439,-2.745,-2.7474,-2.7481,-2.7501,-2.7489,-2.75,-2.7503,-2.7505,-2.7509,-2.7432,-2.7504,-2.7504,-2.7504,-2.7504,-2.7504,0,-2.7346,-2.7353,-2.7374,-2.7395,-2.7412,-2.7401,-2.7415,-2.7431,-2.7455,-2.7466,-2.7484,-2.7511,-2.7531,-2.7536,-2.7555,-2.7571,-2.7566,-2.7576,-2.7575,-2.7576,-2.7518,-2.751,-2.758,-2.758,-2.758,-2.758,-2.758,-2.758,-2.7386,-2.7421,-2.7421,-2.746,-2.7467,-2.7493,-2.7503,-2.7515,-2.7524,-2.7555,-2.7573,-2.7576,-2.7584,-2.7604,-2.7623,-2.7623,-2.7631,-2.7643,-2.7642,-2.7588,-2.758,-2.7573,-2.7565,-2.7645,-2.7645,-2.7698,-2.7698,-2.7699]}]]